Regional Weather Roundup
Issued by NWS Columbia, SC

Home | Current Version | Previous Version | Text Only | Print | Product List | Glossary On
Versions: 1 2 3 4 5 6 7 8 9 10 11 12 13 14 15 16 17 18 19 20 21 22 23 24 25 26 27 28 29 30 31 32 33 34 35 36 37 38 39 40 41 42 43 44 45 46 47 48 49 50
000
ASUS42 KCAE 300410
RWRCAE
REGIONAL WEATHER ROUNDUP
NATIONAL WEATHER SERVICE COLUMBIA SC
1200 AM EDT MON MAR 30 2015

NOTE: "FAIR" INDICATES FEW OR NO CLOUDS BELOW 12,000 FEET WITH NO
SIGNIFICANT WEATHER AND/OR OBSTRUCTIONS TO VISIBILITY.

NOT ALL STATIONS ARE QUALITY CONTROLLED BY THE NATIONAL
WEATHER SERVICE. USE DATA WITH CAUTION...ESPECIALLY
DEWPOINT OBSERVATIONS.

SCZ001>056-GAZ040-063>065-077-300500-
...UPSTATE SOUTH CAROLINA...

CITY           SKY/WX    TMP DP  RH WIND       PRES   REMARKS
ANDERSON       CLOUDY    49  24  37 SW8       30.24F
LIBERTY        CLOUDY    46  26  45 W5        30.23S
SPARTANBURG    CLEAR     45  18  33 SW3       30.22F
CLEMSON        CLOUDY    51  22  31 CALM      30.24F
GREENVILLE     CLOUDY    49  16  26 S9        30.22F
GREENWOOD      CLEAR     46  23  40 S8        30.26F
GREER          MOCLDY    47  18  31 SW14      30.20F
ROCK HILL      CLEAR     40  20  44 S9        30.23F WCI  34
CHESTER        CLEAR     45  19  36 S6        30.24F
LAURENS        CLEAR     43  28  56 S9        30.23F


...CENTRAL SOUTH CAROLINA...

CITY           SKY/WX    TMP DP  RH WIND       PRES   REMARKS
COLUMBIA APT   FAIR      40  25  55 SW5       30.29F
COLUMBIA OWENS CLEAR     42  25  50 CALM      30.30F
DARLINGTON     CLEAR     39  23  52 S5        30.29F
FLORENCE       CLEAR     41  29  62 S8        30.29F
MCENTIRE ANGB  CLEAR     39  25  56 S7        30.29F WCI  34
ORANGEBURG     CLEAR     41  30  65 S6        30.32S
SUMTER SHAW    CLEAR     40  24  53 S6        30.28F
NEWBERRY       CLEAR    N/A N/A N/A S5        30.28F
AIKEN          FAIR      41  23  48 S8        30.32S
BARNWELL       FAIR      46  32  57 S6        30.31F
MANNING        FLURRIES  41  32  70 S5        30.32F
CAMDEN         FAIR      39  23  52 CALM      30.29S
LANCASTER      CLEAR     41  19  42 S7        30.26F
WINNSBORO      CLEAR     41  21  45 S8        30.26F


...EASTERN AND COASTAL SOUTH CAROLINA...

CITY           SKY/WX    TMP DP  RH WIND       PRES   REMARKS
MYRTLE BEACH   CLEAR     39  34  81 S6        30.34S WCI  35
N MYRTLE BCH   CLEAR     39  33  79 SW3       30.31F
CONWAY         FAIR      36  34  93 CALM      30.32F
MARION         FAIR      37  32  81 CALM      30.31F
HARTSVILLE     FAIR      37  23  56 S5        30.28F WCI  34
FLORENCE       CLEAR     41  29  62 S8        30.29F
DARLINGTON     CLEAR     39  23  52 S5        30.29F
CHARLESTON APT CLEAR     44  33  65 S5        30.34R
MOUNT PLEASANT LGT RAIN  39  36  87 CALM      30.34S
WALTERBORO     CLEAR     41  34  75 S3        30.34S
BEAUFORT       CLEAR     43  33  68 SW5       30.34S


...EASTERN GEORGIA...

CITY           SKY/WX    TMP DP  RH WIND       PRES   REMARKS
AUGUSTA BUSH F CLEAR     41  26  55 S7        30.31R
AUGUSTA DANIEL CLEAR     49  22  34 SE9       30.30R
THOMSON        PTCLDY    47  29  49 CALM      30.32F
WASHINGTON     FAIR      46  36  66 S3        30.26F
CLAXTON        FAIR      43  36  75 CALM      30.34F
SYLVANIA       CLEAR     45  35  67 S3        30.33F
STATESBORO     CLEAR     44  36  73 S3        30.32F
SAVANNAH       CLEAR     43  34  70 CALM      30.34F


...SOUTHERN NORTH CAROLINA...

CITY           SKY/WX    TMP DP  RH WIND       PRES   REMARKS
CHARLOTTE      CLEAR     42  16  34 S9        30.22F
MONROE         CLEAR     44  16  32 S6        30.23F
WADESBORO      CLEAR     44  14  29 S7        30.25F
ROCKINGHAM       N/A     40  17  38 S5        30.27F
RUTHERFORDTON  CLEAR     41  17  37 S3        30.21F
ASHEVILLE      CLEAR     44  16  32 SE9       30.17F

$$


USA.gov is the U.S. government's official web portal to all federal, state and local government web resources and services.